Location: McCloud Nature Park
(39.8272°N, 86.6824°W)
Time: 23:13:14
(UTC-06:00)

Amateur Radio Satellites - All Passes

Search period start: 19 December 2014 22:43
Search period end: 20 December 2014 22:43
Location: McCloud Nature Park, 39.8272°N, 86.6824°W

Satellite Date Start Highest point End Downlink Frequencies (MHz)
Time Altitude Azimuth
CUBEBUG 1 19 Dec 22:45:51 22:50:00 42° 261° (W) 22:54:09 437.445
ANTELSAT 19 Dec 22:46:13 22:50:54 68° 285° (WNW) 22:55:35 437.575/2403.000
POLYITAN 1 19 Dec 22:47:45 22:52:03 84° 103° (ESE) 22:56:21 437.675
SO-50 19 Dec 22:49:56 22:52:06 13° 322° (NW) 22:54:19 436.795
50 SAT 19 Dec 22:50:13 22:52:36 15° 268° (W) 22:55:00 437.505
NANOSAT C BR1 19 Dec 22:50:51 22:55:07 90° 102° (ESE) 22:59:23 145.865
QB50P1 19 Dec 23:05:09 23:09:22 62° 286° (WNW) 23:13:34 145.935-145.965
BEESAT 19 Dec 23:08:59 23:11:24 14° 62° (ENE) 23:13:49 436.000
BEESAT 3 19 Dec 23:12:25 23:15:29 20° 249° (WSW) 23:18:31 437.485
AIST 2 19 Dec 23:13:06 23:17:15 48° 243° (WSW) 23:21:19 435.215
M-CUBED/EXP-1 PRIME 19 Dec 23:21:15 23:23:48 14° 57° (ENE) 23:26:22 437.505
TIGRISAT 19 Dec 23:22:50 23:26:54 30° 291° (WNW) 23:30:58 435.000
ESTCUBE 1 19 Dec 23:31:28 23:33:58 15° 268° (W) 23:36:28 437.505/2401.250
PCSat 19 Dec 23:31:49 23:37:01 48° 248° (WSW) 23:42:10 145.827
POPSAT HIP 1 19 Dec 23:34:08 23:37:51 30° 290° (WNW) 23:41:33 437.405
YUBILEINY 19 Dec 23:42:22 23:51:07 82° 95° (E) 23:59:52 435.215
RS-15 19 Dec 23:45:01 23:49:19 13° 264° (W) 23:53:41 29.354- 29.394
UNISAT 6 19 Dec 23:52:33 23:55:20 16° 296° (WNW) 23:58:08 437.425
TISAT 1 19 Dec 23:57:41 00:01:15 27° 264° (W) 00:04:50 437.305
SPROUT 19 Dec 23:57:55 00:01:40 30° 263° (W) 00:05:26 437.525
DUCHIFAT 1 20 Dec 00:03:37 00:06:07 15° 295° (WNW) 00:08:36 145.980
O/OREOS (USA 219) 20 Dec 00:03:49 00:08:01 42° 106° (ESE) 00:12:14 437.305
BUGSAT 1 20 Dec 00:06:52 00:09:21 16° 294° (WNW) 00:11:50 437.445
QB50P2 20 Dec 00:17:40 00:18:53 11° 297° (WNW) 00:20:06 145.880/145.840
SWISSCUBE 20 Dec 00:18:41 00:23:28 75° 75° (ENE) 00:28:16 437.505
ITUPSAT 1 20 Dec 00:18:48 00:23:34 68° 74° (ENE) 00:28:21 437.325
KKS-1 20 Dec 00:26:20 00:29:03 16° 64° (ENE) 00:31:47 437.445
STARS 20 Dec 00:26:37 00:27:25 10° 61° (ENE) 00:28:13 437.465
AUBIESAT-1 20 Dec 00:28:27 00:33:09 56° 68° (ENE) 00:37:57 437.475
BEESAT 20 Dec 00:43:55 00:48:41 66° 258° (WSW) 00:53:28 436.000
M-CUBED/EXP-1 PRIME 20 Dec 00:53:20 00:58:08 76° 253° (WSW) 01:03:05 437.505
Oscar 19 20 Dec 01:14:09 01:19:21 67° 102° (ESE) 01:24:30 437.125/150
Gurwin Techsat 1B 20 Dec 01:19:44 01:23:04 17° 92° (E) 01:26:23 435.225
ITAMSAT 1 20 Dec 01:28:25 01:33:02 32° 97° (E) 01:37:39 435.822/435.867
YUBILEINY 20 Dec 01:42:50 01:48:58 21° 295° (WNW) 01:55:08 435.215
O/OREOS (USA 219) 20 Dec 01:44:28 01:47:37 19° 303° (WNW) 01:50:46 437.305
STARS 20 Dec 01:58:53 02:03:15 75° 257° (WSW) 02:07:39 437.465
ITUPSAT 1 20 Dec 02:00:02 02:01:54 12° 270° (W) 02:03:46 437.325
SWISSCUBE 20 Dec 02:00:41 02:01:49 11° 270° (W) 02:02:57 437.505
KKS-1 20 Dec 02:01:03 02:05:18 47° 260° (W) 02:09:35 437.445
AUBIESAT-1 20 Dec 02:05:19 02:08:22 17° 264° (W) 02:11:28 437.475
VERMONT LUNAR 20 Dec 02:47:37 02:50:48 32° 154° (SSE) 02:53:59 437.305
Oscar 19 20 Dec 02:55:05 02:58:06 16° 298° (WNW) 03:01:06 437.125/150
PHONESAT 2.4 20 Dec 02:58:00 03:01:05 26° 152° (SSE) 03:04:11 2401.200-2431.200
Gurwin Techsat 1B 20 Dec 02:58:11 03:03:23 58° 287° (WNW) 03:08:34 435.225
AIST 1 20 Dec 02:59:39 03:03:45 43° 79° (ENE) 03:07:47
MOZHAYETS 4 20 Dec 03:05:27 03:09:15 25° 68° (ENE) 03:13:03
ITAMSAT 1 20 Dec 03:08:00 03:12:25 30° 293° (WNW) 03:16:51 435.822/435.867
HORYU 2 20 Dec 03:23:25 03:27:56 73° 285° (WNW) 03:32:25 437.375
GONETS M04 20 Dec 03:44:48 03:50:19 19° 78° (ENE) 03:55:49
AO-7 20 Dec 03:51:12 03:59:29 60° 103° (ESE) 04:07:41 29.400- 29.500
SO-50 20 Dec 03:59:45 04:01:54 13° 38° (NE) 04:04:03 436.795
PRISM 20 Dec 04:06:20 04:08:59 16° 65° (ENE) 04:11:38 437.425
STRAND 1 20 Dec 04:22:35 04:24:48 13° 60° (ENE) 04:27:00 437.568
VERMONT LUNAR 20 Dec 04:25:24 04:28:56 90° 164° (SSE) 04:32:29 437.305
JAS-2 20 Dec 04:27:16 04:32:34 41° 97° (E) 04:37:29 435.910
CUBESAT XI-V 20 Dec 04:28:08 04:30:34 14° 63° (ENE) 04:33:00 437.345
PHONESAT 2.4 20 Dec 04:35:54 04:39:32 81° 168° (SSE) 04:43:10 2401.200-2431.200
AIST 1 20 Dec 04:38:46 04:40:58 14° 275° (W) 04:43:10
MOZHAYETS 4 20 Dec 04:42:12 04:46:19 31° 264° (W) 04:50:28
CUTE-I 20 Dec 04:53:02 04:55:49 14° 91° (E) 04:58:36 437.470
GONETS M04 20 Dec 05:37:03 05:45:55 86° 277° (W) 05:54:49
SO-50 20 Dec 05:38:24 05:43:19 72° 57° (ENE) 05:48:13 436.795
PRISM 20 Dec 05:40:08 05:44:10 42° 261° (W) 05:48:12 437.425
AO-7 20 Dec 05:44:41 05:51:45 32° 302° (WNW) 05:58:49 29.400- 29.500
Cubesat XI-IV 20 Dec 05:57:36 06:02:52 61° 101° (ESE) 06:08:07 437.490
STRAND 1 20 Dec 05:58:10 06:03:17 80° 257° (WSW) 06:08:25 437.568
CUBESAT XI-V 20 Dec 06:02:52 06:07:29 61° 259° (W) 06:12:07 437.345
VERMONT LUNAR 20 Dec 06:03:47 06:07:20 85° 7° (N) 06:10:52 437.305
JAS-2 20 Dec 06:12:58 06:17:23 24° 297° (WNW) 06:21:32 435.910
PHONESAT 2.4 20 Dec 06:14:39 06:18:17 81° 5° (N) 06:21:55 2401.200-2431.200
CUTE-I 20 Dec 06:31:04 06:36:21 68° 287° (WNW) 06:41:37 437.470
SO-50 20 Dec 07:20:55 07:23:16 13° 253° (WSW) 07:25:36 436.795
GONETS M04 20 Dec 07:38:40 07:44:06 17° 298° (WNW) 07:49:34
Cubesat XI-IV 20 Dec 07:39:02 07:42:26 18° 298° (WNW) 07:45:51 437.490
VERMONT LUNAR 20 Dec 07:42:14 07:45:32 38° 204° (SSW) 07:48:50 437.305
PHONESAT 2.4 20 Dec 07:53:24 07:56:54 46° 201° (SSW) 08:00:24 2401.200-2431.200
HO-68 20 Dec 07:53:54 08:00:07 31° 96° (E) 08:06:16 435.675
AAUSAT CUBESAT 2 20 Dec 07:59:41 08:02:04 15° 92° (E) 08:04:26 437.432
CANX-2 20 Dec 08:10:13 08:14:10 34° 97° (E) 08:18:05 2200.000
CINEMA 3 20 Dec 08:11:11 08:13:04 12° 90° (E) 08:14:57 145.822/145.860
BRITE-PL 20 Dec 08:20:40 08:25:15 49° 100° (E) 08:30:11 437.365/2234.400
COMPASS 1 20 Dec 08:33:20 08:37:22 40° 98° (E) 08:41:22 437.405
UWE-3 20 Dec 08:37:26 08:38:51 11° 90° (E) 08:40:16 435.000/436.395/437.385
SEEDS 20 Dec 08:38:05 08:42:20 56° 100° (E) 08:46:31 437.485
CUTE 1.7 + AOD 2 20 Dec 08:40:51 08:45:10 71° 101° (ESE) 08:49:27 437.475
CUSAT 1 20 Dec 08:43:27 08:46:30 27° 87° (E) 08:50:22 437.405
TIGRISAT 20 Dec 08:45:08 08:48:26 22° 67° (ENE) 08:51:49 435.000
GOMX 1 20 Dec 08:49:39 08:54:25 71° 102° (ESE) 08:59:31 467.674
POPSAT HIP 1 20 Dec 08:52:00 08:54:37 16° 65° (ENE) 08:57:14 437.405
DX 1 20 Dec 08:52:59 08:56:19 21° 95° (E) 08:59:38 434.975-435.025
DELFI C3 20 Dec 08:53:09 08:56:30 23° 95° (E) 08:59:48 145.870
MaSat-1 20 Dec 09:03:38 09:05:27 20° 300° (WNW) 09:07:14 437.345
UNISAT 6 20 Dec 09:13:04 09:17:11 43° 72° (ENE) 09:21:26 437.425
HUMSAT D 20 Dec 09:14:35 09:16:40 13° 91° (E) 09:18:45 437.325/437.525
Oscar 11 20 Dec 09:15:36 09:19:53 53° 100° (E) 09:24:08 145.826/435.025
DOVE 4 20 Dec 09:17:12 09:21:59 83° 284° (WNW) 09:27:03 437.250
DUCHIFAT 1 20 Dec 09:18:58 09:22:40 31° 70° (ENE) 09:26:23 145.980
BUGSAT 1 20 Dec 09:20:27 09:23:51 26° 69° (ENE) 09:27:15 437.445
UKube-1 20 Dec 09:23:55 09:28:05 45° 100° (E) 09:32:14 .
QB50P2 20 Dec 09:31:50 09:35:51 45° 73° (ENE) 09:39:53 145.880/145.840
CUBEBUG 2 20 Dec 09:32:08 09:36:41 53° 100° (E) 09:41:19 437.445
DANDE 20 Dec 09:32:34 09:35:55 90° 95° (E) 09:40:25 436.750
PHONESAT 2.4 20 Dec 09:33:44 09:35:03 12° 216° (SW) 09:36:22 2401.200-2431.200
AAUSAT CUBESAT 2 20 Dec 09:33:54 09:37:57 44° 287° (WNW) 09:41:57 437.432
POLYITAN 1 20 Dec 09:40:24 09:44:31 57° 74° (ENE) 09:48:40 437.675
HO-68 20 Dec 09:41:11 09:47:59 49° 293° (WNW) 09:54:45 435.675
RS-15 20 Dec 09:42:42 09:49:54 21° 100° (E) 09:57:04 29.354- 29.394
NANOSAT C BR1 20 Dec 09:42:59 09:47:07 60° 74° (ENE) 09:51:16 145.865
ANTELSAT 20 Dec 09:44:41 09:49:02 83° 257° (WSW) 09:53:32 437.575/2403.000
ZACube-1 20 Dec 09:44:41 09:49:08 52° 100° (E) 09:53:36 437.345
VELOX 1 20 Dec 09:45:35 09:49:20 27° 96° (E) 09:53:04 145.980
CINEMA 3 20 Dec 09:45:54 09:50:37 69° 285° (WNW) 09:55:31 145.822/145.860
CANX-2 20 Dec 09:46:41 09:49:52 20° 293° (WNW) 09:53:03 2200.000
ESTCUBE 1 20 Dec 09:48:37 09:49:57 11° 90° (E) 09:51:16 437.505/2401.250
YUBILEINY 20 Dec 09:53:51 10:01:51 39° 73° (ENE) 10:09:48 435.215
QB50P1 20 Dec 09:57:14 10:01:27 89° 74° (ENE) 10:05:41 145.935-145.965
BRITE-PL 20 Dec 10:00:18 10:03:28 18° 293° (WNW) 10:06:47 437.365/2234.400
COMPASS 1 20 Dec 10:09:59 10:12:45 17° 294° (WNW) 10:15:30 437.405
UWE-3 20 Dec 10:11:13 10:15:47 69° 285° (WNW) 10:20:25 435.000/436.395/437.385
FUNcube-1 20 Dec 10:11:31 10:16:03 81° 284° (WNW) 10:20:38 145.935
O/OREOS (USA 219) 20 Dec 10:14:10 10:18:41 74° 68° (ENE) 10:23:12 437.305
SEEDS 20 Dec 10:15:39 10:17:39 13° 296° (WNW) 10:19:39 437.485
CUTE 1.7 + AOD 2 20 Dec 10:19:30 10:20:29 11° 298° (WNW) 10:21:27 437.475
TIGRISAT 20 Dec 10:21:04 10:24:59 33° 263° (W) 10:28:59 435.000
POPSAT HIP 1 20 Dec 10:26:12 10:30:10 41° 261° (W) 10:34:11 437.405
CUSAT 1 20 Dec 10:27:04 10:29:46 18° 296° (WNW) 10:32:59 437.405
AISAT 20 Dec 10:28:01 10:32:29 83° 103° (ESE) 10:36:56 437.250
DELFI C3 20 Dec 10:28:16 10:31:42 26° 291° (WNW) 10:35:07 145.870
DX 1 20 Dec 10:28:43 10:32:35 32° 290° (WNW) 10:36:27 434.975-435.025
50 SAT 20 Dec 10:29:18 10:33:28 76° 102° (ESE) 10:37:37 437.505
GOMX 1 20 Dec 10:29:49 10:32:03 13° 296° (WNW) 10:34:21 467.674
CUBEBUG 1 20 Dec 10:35:42 10:39:41 35° 98° (E) 10:43:40 437.445
HUMSAT D 20 Dec 10:48:32 10:52:44 52° 286° (WNW) 10:56:57 437.325/437.525
UNISAT 6 20 Dec 10:51:31 10:54:13 16° 268° (W) 10:56:57 437.425
Oscar 11 20 Dec 10:53:17 10:55:36 14° 296° (WNW) 10:57:53 145.826/435.025
Oscar 19 20 Dec 10:55:25 10:56:51 11° 59° (ENE) 10:58:17 437.125/150
DUCHIFAT 1 20 Dec 10:55:26 10:58:34 20° 266° (W) 11:01:42 145.980
BUGSAT 1 20 Dec 10:56:00 10:59:18 23° 264° (W) 11:02:35 437.445
UKube-1 20 Dec 11:01:13 11:03:52 16° 296° (WNW) 11:06:30 .
QB50P2 20 Dec 11:09:44 11:12:00 14° 268° (W) 11:14:17 145.880/145.840
CUBEBUG 2 20 Dec 11:10:08 11:12:58 16° 295° (WNW) 11:15:49 437.445
POLYITAN 1 20 Dec 11:19:33 11:20:49 11° 269° (W) 11:22:04 437.675
VELOX 1 20 Dec 11:22:08 11:25:50 27° 292° (WNW) 11:29:32 145.980
ZACube-1 20 Dec 11:22:23 11:25:04 16° 295° (WNW) 11:27:47 437.345
NANOSAT C BR1 20 Dec 11:22:34 11:23:22 10° 270° (W) 11:24:10 145.865
ESTCUBE 1 20 Dec 11:22:46 11:27:14 64° 286° (WNW) 11:31:39 437.505/2401.250
TISAT 1 20 Dec 11:42:46 11:46:52 48° 100° (E) 11:50:57 437.305
SPROUT 20 Dec 11:44:57 11:49:07 48° 99° (E) 11:53:16 437.525
RS-15 20 Dec 11:49:39 12:00:37 89° 120° (ESE) 12:11:38 29.354- 29.394
YUBILEINY 20 Dec 11:50:37 11:58:40 44° 272° (W) 12:06:43 435.215
BEESAT 2 20 Dec 12:08:06 12:11:02 19° 111° (ESE) 12:14:00 435.950
CUBEBUG 1 20 Dec 12:12:41 12:15:49 20° 293° (WNW) 12:18:57 437.445
SWISSCUBE 20 Dec 12:20:56 12:24:26 20° 94° (E) 12:27:55 437.505
ITUPSAT 1 20 Dec 12:21:26 12:24:45 18° 93° (E) 12:28:01 437.325
Oscar 19 20 Dec 12:30:14 12:35:22 88° 76° (ENE) 12:40:34 437.125/150
PCSat 20 Dec 12:30:26 12:34:43 25° 107° (ESE) 12:39:01 145.827
Gurwin Techsat 1B 20 Dec 12:39:51 12:44:08 26° 66° (ENE) 12:48:26 435.225
BEESAT 20 Dec 12:45:23 12:49:42 33° 97° (E) 12:53:58 436.000
ITAMSAT 1 20 Dec 12:45:36 12:50:32 46° 71° (ENE) 12:55:28 435.822/435.867
ISS 20 Dec 12:51:49 12:54:54 38° 136° (SE) 12:58:00 145.825
AO-7 20 Dec 13:01:05 13:05:53 17° 49° (NE) 13:10:43 29.400- 29.500
BEESAT 3 20 Dec 13:05:08 13:09:13 88° 298° (WNW) 13:13:24 437.485
AIST 2 20 Dec 13:10:37 13:14:36 42° 116° (ESE) 13:18:39 435.215
TISAT 1 20 Dec 13:19:58 13:22:17 15° 295° (WNW) 13:24:35 437.305
SPROUT 20 Dec 13:22:21 13:24:48 15° 295° (WNW) 13:27:14 437.525
BEESAT 2 20 Dec 13:45:08 13:49:00 38° 307° (NW) 13:52:55 435.950
AUBIESAT-1 20 Dec 13:47:25 13:51:36 48° 104° (ESE) 13:55:24 437.475
STARS 20 Dec 13:50:27 13:53:51 21° 95° (E) 13:57:15 437.465
KKS-1 20 Dec 13:53:07 13:57:12 34° 98° (E) 14:01:16 437.445
SWISSCUBE 20 Dec 13:57:59 14:02:26 40° 289° (WNW) 14:06:51 437.505
ITUPSAT 1 20 Dec 13:58:18 14:02:50 44° 289° (WNW) 14:07:19 437.325
RS-15 20 Dec 14:05:17 14:14:32 31° 326° (NNW) 14:23:58 29.354- 29.394
PCSat 20 Dec 14:12:39 14:17:49 45° 304° (NW) 14:23:02 145.827
M-CUBED/EXP-1 PRIME 20 Dec 14:12:47 14:17:11 77° 289° (WNW) 14:21:09 437.505
Gurwin Techsat 1B 20 Dec 14:18:55 14:23:52 40° 262° (W) 14:28:51 435.225
HORYU 2 20 Dec 14:21:02 14:25:29 87° 256° (WSW) 14:30:00 437.375
BEESAT 20 Dec 14:23:30 14:27:22 25° 293° (WNW) 14:31:13 436.000
ITAMSAT 1 20 Dec 14:26:26 14:30:13 20° 266° (W) 14:34:02 435.822/435.867
ISS 20 Dec 14:28:40 14:31:33 27° 333° (NNW) 14:34:26 145.825
JAS-2 20 Dec 14:38:08 14:43:44 23° 63° (ENE) 14:48:59 435.910
BEESAT 3 20 Dec 14:46:37 14:48:03 12° 320° (NW) 14:49:29 437.485
AO-7 20 Dec 14:49:00 14:57:16 74° 69° (ENE) 15:05:37 29.400- 29.500
AIST 2 20 Dec 14:50:08 14:53:24 21° 313° (NW) 14:56:42 435.215
AUBIESAT-1 20 Dec 15:23:29 15:26:04 16° 302° (WNW) 15:28:32 437.475
STARS 20 Dec 15:26:23 15:30:22 33° 290° (WNW) 15:34:22 437.465
AIST 1 20 Dec 15:28:48 15:32:31 27° 90° (E) 15:36:13
KKS-1 20 Dec 15:30:13 15:33:38 22° 293° (WNW) 15:37:02 437.445
Cubesat XI-IV 20 Dec 15:42:54 15:44:59 12° 59° (ENE) 15:47:04 437.490
GONETS M04 20 Dec 15:48:38 15:57:00 47° 75° (ENE) 16:05:15
ISS 20 Dec 16:07:50 16:09:00 11° 353° (N) 16:10:10 145.825
CUTE-I 20 Dec 16:13:47 16:17:55 24° 65° (ENE) 16:22:03 437.470
JAS-2 20 Dec 16:20:30 16:28:12 72° 258° (WSW) 16:35:17 435.910
RS-15 20 Dec 16:25:04 16:32:04 18° 2° (N) 16:39:13 29.354- 29.394
MOZHAYETS 4 20 Dec 16:37:39 16:42:16 66° 101° (E) 16:46:49
AO-7 20 Dec 16:44:33 16:50:44 23° 267° (W) 16:56:59 29.400- 29.500
AIST 1 20 Dec 17:06:37 17:10:08 23° 286° (WNW) 17:13:39
Cubesat XI-IV 20 Dec 17:18:57 17:24:17 88° 256° (WSW) 17:29:39 437.490
PRISM 20 Dec 17:24:19 17:27:52 27° 96° (E) 17:31:23 437.425
ISS 20 Dec 17:45:00 17:46:43 13° 13° (NNE) 17:48:26 145.825
GONETS M04 20 Dec 17:45:49 17:53:34 37° 274° (W) 18:01:16
CUTE-I 20 Dec 17:52:38 17:57:41 44° 261° (W) 18:02:46 437.470
CUBESAT XI-V 20 Dec 18:00:44 18:04:57 35° 97° (E) 18:09:07 437.345
STRAND 1 20 Dec 18:09:46 18:14:28 36° 98° (E) 18:19:07 437.568
JAS-2 20 Dec 18:11:37 18:14:02 12° 273° (W) 18:16:24 435.910
MOZHAYETS 4 20 Dec 18:16:50 18:18:54 13° 297° (WNW) 18:20:58
HO-68 20 Dec 18:22:46 18:28:07 23° 58° (ENE) 18:33:27 435.675
DANDE 20 Dec 18:30:51 18:35:31 17° 64° (ENE) 18:40:31 436.750
MaSat-1 20 Dec 18:34:28 18:36:22 20° 250° (WSW) 18:38:20 437.345
RS-15 20 Dec 18:39:36 18:49:26 33° 37° (NE) 18:59:33 29.354- 29.394
PRISM 20 Dec 18:59:58 19:03:16 23° 292° (WNW) 19:06:33 437.425
CANX-2 20 Dec 19:03:10 19:06:33 23° 68° (ENE) 19:09:57 2200.000
CUSAT 1 20 Dec 19:20:31 19:27:47 41° 74° (ENE) 19:35:41 437.405
ISS 20 Dec 19:20:47 19:23:57 45° 33° (NNE) 19:27:06 145.825
COMPASS 1 20 Dec 19:24:41 19:28:12 26° 69° (ENE) 19:31:45 437.405
SEEDS 20 Dec 19:29:53 19:33:45 35° 71° (ENE) 19:37:40 437.485
BRITE-PL 20 Dec 19:31:51 19:35:51 47° 73° (ENE) 19:39:50 437.365/2234.400
CUTE 1.7 + AOD 2 20 Dec 19:33:10 19:37:14 45° 73° (ENE) 19:41:20 437.475
CUBESAT XI-V 20 Dec 19:38:37 19:42:10 22° 293° (WNW) 19:45:42 437.345
DELFI C3 20 Dec 19:42:13 19:44:33 15° 65° (ENE) 19:46:54 145.870
DX 1 20 Dec 19:48:39 19:51:37 18° 65° (ENE) 19:54:34 434.975-435.025
STRAND 1 20 Dec 19:49:18 19:53:27 26° 294° (WNW) 19:57:36 437.568
SO-50 20 Dec 19:53:11 19:56:57 27° 112° (ESE) 20:00:49 436.795
GOMX 1 20 Dec 19:58:00 20:02:06 66° 75° (ENE) 20:06:15 467.674
HO-68 20 Dec 20:08:00 20:15:09 71° 256° (WSW) 20:22:20 435.675
Oscar 11 20 Dec 20:09:49 20:13:48 37° 71° (ENE) 20:17:49 145.826/435.025
DANDE 20 Dec 20:12:07 20:19:53 77° 80° (E) 20:28:36 436.750
UKube-1 20 Dec 20:18:27 20:22:25 36° 70° (ENE) 20:26:23 .
DOVE 4 20 Dec 20:22:57 20:27:05 88° 257° (WSW) 20:31:18 437.250
AAUSAT CUBESAT 2 20 Dec 20:24:03 20:28:14 73° 258° (WSW) 20:32:29 437.432
BEESAT 2 20 Dec 20:28:58 20:31:02 13° 42° (NE) 20:33:04 435.950
CUBEBUG 2 20 Dec 20:30:24 20:34:15 38° 71° (ENE) 20:38:13 437.445
CANX-2 20 Dec 20:38:38 20:42:20 29° 264° (W) 20:46:05 2200.000
ZACube-1 20 Dec 20:40:37 20:44:25 35° 71° (ENE) 20:48:19 437.345
VELOX 1 20 Dec 20:43:15 20:46:43 23° 67° (ENE) 20:50:12 145.980
CINEMA 3 20 Dec 20:47:32 20:51:40 80° 258° (WSW) 20:55:56 145.822/145.860
ESTCUBE 1 20 Dec 20:48:43 20:49:53 11° 61° (ENE) 20:51:03 437.505/2401.250
RS-15 20 Dec 20:51:50 21:03:11 84° 241° (WSW) 21:15:02 29.354- 29.394
ISS 20 Dec 20:57:56 21:00:18 19° 229° (SW) 21:02:40 145.825
COMPASS 1 20 Dec 21:00:23 21:03:51 25° 265° (W) 21:07:22 437.405
CUSAT 1 20 Dec 21:03:31 21:10:53 46° 268° (W) 21:18:51 437.405
SEEDS 20 Dec 21:06:44 21:09:41 18° 267° (W) 21:12:40 437.485
FUNcube-1 20 Dec 21:06:55 21:11:04 72° 76° (ENE) 21:15:19 145.935
UWE-3 20 Dec 21:07:58 21:12:09 89° 77° (ENE) 21:16:26 435.000/436.395/437.385
UNISAT 6 20 Dec 21:08:41 21:09:40 11° 89° (E) 21:10:39 437.425
CUTE 1.7 + AOD 2 20 Dec 21:11:01 21:13:24 15° 268° (W) 21:15:47 437.475
BRITE-PL 20 Dec 21:12:54 21:14:40 12° 269° (W) 21:16:27 437.365/2234.400
DELFI C3 20 Dec 21:15:31 21:19:26 44° 261° (W) 21:23:24 145.870
50 SAT 20 Dec 21:17:02 21:20:48 42° 73° (ENE) 21:24:38 437.505
PCSat 20 Dec 21:18:36 21:22:33 20° 46° (NE) 21:26:28 145.827
DX 1 20 Dec 21:23:29 21:27:33 39° 261° (W) 21:31:39 434.975-435.025
AISAT 20 Dec 21:25:26 21:29:49 68° 75° (ENE) 21:34:13 437.250
BEESAT 3 20 Dec 21:25:42 21:29:44 44° 54° (NE) 21:33:41 437.485
POLYITAN 1 20 Dec 21:30:23 21:30:39 10° 90° (E) 21:30:55 437.675
CUBEBUG 1 20 Dec 21:31:39 21:35:22 28° 69° (ENE) 21:39:05 437.445
NANOSAT C BR1 20 Dec 21:32:01 21:32:46 10° 90° (E) 21:33:30 145.865
SO-50 20 Dec 21:33:11 21:37:20 34° 310° (NW) 21:41:37 436.795
AIST 2 20 Dec 21:33:32 21:37:06 25° 48° (NE) 21:40:38 435.215
ANTELSAT 20 Dec 21:38:12 21:41:58 23° 94° (E) 21:45:44 437.575/2403.000
HUMSAT D 20 Dec 21:39:54 21:44:01 81° 258° (WSW) 21:48:13 437.325/437.525
QB50P1 20 Dec 21:44:48 21:47:22 16° 93° (E) 21:49:55 145.935-145.965
Oscar 11 20 Dec 21:47:06 21:50:05 18° 267° (W) 21:53:06 145.826/435.025
UKube-1 20 Dec 21:55:36 21:58:40 19° 266° (W) 22:01:45 .
DANDE 20 Dec 21:56:55 22:02:48 24° 274° (W) 22:09:08 436.750
HO-68 20 Dec 22:03:46 22:03:59 10° 273° (W) 22:04:13 435.675
BEESAT 2 20 Dec 22:05:37 22:09:49 78° 240° (WSW) 22:13:57 435.950
CUBEBUG 2 20 Dec 22:08:28 22:11:09 16° 268° (W) 22:13:51 437.445
POPSAT HIP 1 20 Dec 22:12:29 22:16:19 32° 97° (E) 22:20:08 437.405
TIGRISAT 20 Dec 22:13:00 22:17:36 53° 100° (E) 22:22:13 435.000
ZACube-1 20 Dec 22:18:05 22:20:56 18° 267° (W) 22:23:49 437.345
VELOX 1 20 Dec 22:19:12 22:23:08 31° 263° (W) 22:27:04 145.980
ESTCUBE 1 20 Dec 22:21:34 22:26:06 77° 258° (WSW) 22:30:40 437.505/2401.250
TISAT 1 20 Dec 22:34:55 22:38:41 33° 71° (ENE) 22:42:28 437.305
